Showing default

PULSAR-0, 64541

Orbit data source: Space-Track

PULSAR-0, 64541 is an American payload satellite in SSO that was launched on Mon, 23 Jun 2025 UTC via an FALCON 9 launch vehicle from the Air Force Western Test Range (AFWTR). Payload-class satellites include a variety of spacecraft equipped with specific instruments for various scientific and technological missions. These include communications satellites like Starlink; space stations such as the ISS; scientific satellites like the Hubble; Earth observation satellites from companies like Planet Labs, Umbra, and HawkEye 360; GPS; miniature CubeSats for education and research; and military/defense satellites.

Loading next visibility...
Identifier
64541, 2025-135P
Orbit
SSO
Country
Flag of USUS
Related business
Manufacturer
Aerospacelab
Mission
Operational Commercial Navigation
Bus & Motor
PULSAR, AOCS
Mass
149 kg wet, 144 kg dry
Launch date (UTC)
2025-06-23 (11 months ago)
Launch vehicle
FALCON 9
Launch site
Air Force Western Test Range (AFWTR)
Object type
Payload
Rocket body
Debris
Shape & HBR
Box + 2 Pan, 1.0 m
Radar Cross Section
0.963 m², Large (>1 m²)

Expand to show TLE details & history
Last TLE update: 14 hours ago

TLE from 14 hours ago
0 PULSAR-0
1 64541U 25135P   26133.06933755  .00002030  00000-0  97321-4 0  9990
2 64541  97.4657 248.0666 0001895 334.6827  25.4314 15.20049863 49491
Epoch: 2026-05-13T01:39Z
TLE epoch observation values (Epoch: 2026-05-13T01:39:50.764Z)
Latitude
-0.0001°
Longitude
-7.72956°
Altitude
507.6 km
Speed
7.611 km/s
True Right ascension
16h 32m 15s
True Declination
0° 00' 00"
Sunlit
Object was in full shadow at epoch
Visualization orbit readout
Latitude
Unknown
Longitude
Unknown
Altitude
Unknown
Speed
Unknown
Apparent Right ascension
Unknown
Apparent Declination
Unknown
Sunlit
N/A
Visualization observer readout
Local Sidereal Time
23:50:11
Azimuth
Unknown
Elevation
Unknown
Doppler factor
Unknown
Orbital elements
Apogee altitude
503.962 km
Perigee altitude
501.354 km
Semi-major axis
6,880.795 km
Eccentricity
0.00019
Inclination
97.4657°
RAAN
248.0666°
Arg. of periapsis
334.6827°
True anomaly
25.44073°
Mean anomaly
25.4314°
Eccentric anomaly
25.43606°
Mean motion
3.80264 °/min
Orbital period
94.67 mins
BSTAR
0.000097321
Loading maneuver chart data...
Computing Atmospheric mass density...
Loading historical data...
Loading historical data...
Loading historical data...
Loading historical data...
Loading historical data...
Loading historical data...
Loading historical data...

Documentation

Showing up to 5 results
|